Voltar ao catálogo

BREEZE-M DEB

TANK

AtivoHEO
NORAD 37220·DEBRIS·🇷🇺 Russia

Lançado Nov 14, 2010 de Baikonur Cosmodrome

Loading…

Próximas Passagens (próximas 24 horas)

TLE

AtualizadoSource: Space-Track

Época: Sep 13, 2026, 06:43 UTC

1 37220U 10061C   26256.28005019  .00002495  00000-0  94316-3 0  9994
2 37220  49.4259 302.9321 5395151 166.8960 216.2552  4.92139903277429

Acompanhe BREEZE-M DEB em tempo real com AllMySat

Download on the App Store